User: anonymous   Login
Location: Ajisawe
(8.4333°N, 4.3833°E)
Time: 12:31:20
(UTC+00:00)
Language:

Cosmos 405 - Orbit

View from above orbital plane
View from above orbital plane
View from above satellite
View from above satellite

Ground track
Ground track

The orbit data is extracted from the following two-line orbital elements,

1 05117U 71028A   21137.92215946  .00001861  00000-0  49966-4 0  9998
2 05117  81.2611 103.0086 0008314 241.2921 171.9589 15.37352896731998
Epoch (UTC): 17 May 2021 22:07:54
Eccentricity: 0.0008314
inclination: 81.2611°
perigee height: 448 km
apogee height: 459 km
right ascension of ascending node: 103.0086°
argument of perigee: 241.2921°
revolutions per day: 15.37352896
mean anomaly at epoch: 171.9589°
orbit number at epoch: 73199

The dashed part of the orbit path shows where the satellite is in the earth's shadow,  

DLR